Terminal Aerodrome Forecast
Issued by NWS Wilmington, OH

Current Version | Previous Version | Graphics & Text | Print | Product List | Glossary On
Versions: 1 2 3 4 5 6 7 8 9 10 11 12 13 14 15 16 17 18 19 20 21 22 23 24 25 26 27 28 29 30
233
FTUS41 KILN 140530
TAFILN
TAF
KILN 140530Z 1406/1506 07011KT P6SM VCSH BKN040 OVC080
      TEMPO 1406/1407 -FZRA
     FM140700 07005KT 5SM BR VCSH BKN008 OVC012
     FM141500 07004KT 5SM -FZRA BR OVC008
     FM141600 23004KT 5SM BR VCSH OVC010
     FM142200 32004KT P6SM OVC012
     FM150000 35005KT P6SM OVC012=

USA.gov is the U.S. government's official web portal to all federal, state and local government web resources and services.